Hourly Data Report for July 06, 2004

SHERBROOKE A
QUEBEC

45°26'00.000" N
71°41'00.000" W
241.40 m
7028124
71610
YSC

Download Data

Hourly Data (July 2004)
Hourly Data Report for July 6, 2004
TIME
LST
Temp Definition
°C
Dew Point Definition
°C
Rel Hum Definition
%
Precip. Amount Definition
mm

Wind Dir Definition
10's deg

Wind Spd Definition
km/h
Visibility Definition
km
Stn Press Definition
kPa
Hmdx Definition


Wind Chill Definition


Weather Definition


00:00 17.4 16.2 93   29 17 15.0 98.00      
01:00 16.5 15.0 91   29 9 15.0 98.05      
02:00 16.3 14.5 89   30 7 15.0 98.09      
03:00 16.0 13.7 86   31 11 15.0 98.11      
04:00 15.4 13.2 87   31 13 15.0 98.19      
05:00 14.9 12.8 87   31 7 15.0 98.23      
06:00 14.8 12.5 86   30 13 15.0 98.32      
07:00 14.9 12.3 84   31 15 19.3 98.36     Cloudy
08:00 15.1 12.0 82   34 9 19.3 98.38     Cloudy
09:00 15.1 12.1 82   31 9 19.3 98.39     Cloudy
10:00 16.2 12.4 78   28 11 19.3 98.40     Cloudy
11:00 16.4 11.9 75   31 13 24.1 98.42     Cloudy
12:00 17.1 12.6 75   30 13 24.1 98.42     Cloudy
13:00 17.6 13.0 74   29 13 24.1 98.43     Cloudy
14:00 18.4 12.8 70   31 9 24.1 98.44     Cloudy
15:00 18.4 12.6 69   26 6 24.1 98.44     Cloudy
16:00 19.3 13.2 68   28 4 24.1 98.44     Mostly Cloudy
17:00 18.9 13.3 70   18 4 15.0 98.43      
18:00 19.0 14.0 73   14 4 15.0 98.41      
19:00 17.9 13.8 77   16 6 15.0 98.41      
20:00 13.9 11.8 87   19 6 15.0 98.42      
21:00 13.3 12.0 92   11 4 15.0 98.45      
22:00 10.7 9.9 95   9 4 0.5 98.42      
23:00 10.0 9.0 93     0 8.0 98.43      

Notes on Data Quality.

Legend

  • E = Estimated
  • M = Missing
  • NA = Not Available*
  • [empty] = Indicates an unobserved value
Date modified: